• In Germany
  • List of Countries
  • For 7 days
  • Water Temperature
  • Satellite Maps
  • Weather Map
  • Weather Widgets
  • user-avatar
    Login

    Hourly Weather Jalalabad

    Today, 21 July, Friday

    Time Temperature Precipitation Wind Pressure Humidity
    00:00 +34°C° 0 mm 1 mps 702 mmHg 46%
    01:00 +33°C° 0 mm 1 mps 702 mmHg 48%
    02:00 +32°C° 0 mm 1 mps 702 mmHg 49%
    03:00 +32°C° 0 mm 1 mps 702 mmHg 50%
    04:00 +29°C° 0 mm 0 mps 702 mmHg 51%
    05:00 +28°C° 0 mm 0 mps 702 mmHg 63%
    06:00 +29°C° 0 mm 0 mps 703 mmHg 59%
    07:00 +32°C° 0 mm 1 mps 703 mmHg 55%
    08:00 +33°C° 0 mm 1 mps 703 mmHg 51%
    09:00 +34°C° 0 mm 1 mps 703 mmHg 46%
    10:00 +37°C° 0 mm 2 mps 703 mmHg 40%
    11:00 +38°C° 0 mm 2 mps 703 mmHg 34%
    12:00 +39°C° 0.2 mm 2 mps 703 mmHg 31%
    13:00 +40°C° 0.2 mm 2 mps 703 mmHg 29%
    14:00 +42°C° 0.2 mm 3 mps 702 mmHg 26%
    15:00 +42°C° 0.2 mm 3 mps 702 mmHg 26%
    16:00 +42°C° 0.2 mm 3 mps 702 mmHg 25%
    17:00 +42°C° 0.2 mm 3 mps 702 mmHg 25%
    18:00 +40°C° 0.1 mm 2 mps 702 mmHg 29%
    19:00 +39°C° 0.1 mm 2 mps 702 mmHg 33%
    20:00 +36°C° 0.1 mm 1 mps 702 mmHg 37%
    21:00 +36°C° 0 mm 1 mps 702 mmHg 40%
    22:00 +35°C° 0 mm 1 mps 702 mmHg 43%
    23:00 +34°C° 0 mm 1 mps 702 mmHg 46%

    Tomorrow, 22 July, Saturday

    Time Temperature Precipitation Wind Pressure Humidity
    00:00 +33°C° 0 mm 1 mps 702 mmHg 49%
    01:00 +31°C° 0 mm 0 mps 702 mmHg 51%
    02:00 +30°C° 0 mm 0 mps 702 mmHg 54%
    03:00 +30°C° 0.1 mm 0 mps 702 mmHg 55%
    04:00 +29°C° 0.1 mm 0 mps 702 mmHg 56%
    05:00 +31°C° 0.1 mm 1 mps 702 mmHg 57%
    06:00 +32°C° 0 mm 1 mps 703 mmHg 52%
    07:00 +33°C° 0 mm 1 mps 703 mmHg 47%
    08:00 +34°C° 0 mm 1 mps 703 mmHg 42%
    09:00 +35°C° 0 mm 1 mps 703 mmHg 36%
    10:00 +36°C° 0 mm 1 mps 703 mmHg 30%
    11:00 +39°C° 0 mm 2 mps 703 mmHg 24%
    12:00 +40°C° 0 mm 2 mps 703 mmHg 23%
    13:00 +40°C° 0 mm 2 mps 703 mmHg 21%
    14:00 +41°C° 0 mm 2 mps 702 mmHg 20%
    15:00 +43°C° 0.1 mm 3 mps 702 mmHg 20%
    16:00 +43°C° 0.1 mm 3 mps 702 mmHg 20%
    17:00 +43°C° 0.1 mm 3 mps 702 mmHg 20%
    18:00 +40°C° 0.1 mm 2 mps 702 mmHg 24%
    19:00 +39°C° 0.1 mm 2 mps 702 mmHg 28%
    20:00 +36°C° 0.1 mm 1 mps 702 mmHg 32%
    21:00 +36°C° 0 mm 1 mps 703 mmHg 35%
    22:00 +35°C° 0 mm 1 mps 703 mmHg 37%
    23:00 +32°C° 0 mm 0 mps 703 mmHg 40%

    Day after tomorrow, 23 July, Sunday

    Time Temperature Precipitation Wind Pressure Humidity
    00:00 +33°C° 0 mm 1 mps 703 mmHg 41%
    01:00 +33°C° 0 mm 1 mps 703 mmHg 43%
    02:00 +32°C° 0 mm 1 mps 703 mmHg 44%
    03:00 +32°C° 0.1 mm 1 mps 703 mmHg 46%
    04:00 +31°C° 0.1 mm 1 mps 703 mmHg 47%
    05:00 +30°C° 0.1 mm 1 mps 703 mmHg 49%
    06:00 +32°C° 0 mm 1 mps 703 mmHg 46%
    07:00 +33°C° 0 mm 1 mps 703 mmHg 44%
    08:00 +34°C° 0 mm 1 mps 704 mmHg 42%
    09:00 +35°C° 0 mm 1 mps 704 mmHg 36%
    10:00 +36°C° 0 mm 1 mps 703 mmHg 31%
    11:00 +38°C° 0 mm 2 mps 703 mmHg 26%
    12:00 +39°C° 0 mm 2 mps 703 mmHg 24%
    13:00 +40°C° 0 mm 2 mps 703 mmHg 22%
    14:00 +41°C° 0 mm 2 mps 702 mmHg 20%
    15:00 +42°C° 0.1 mm 3 mps 702 mmHg 20%
    16:00 +43°C° 0.1 mm 3 mps 702 mmHg 20%
    17:00 +43°C° 0.1 mm 3 mps 701 mmHg 21%
    18:00 +40°C° 0 mm 2 mps 701 mmHg 25%
    19:00 +39°C° 0 mm 2 mps 702 mmHg 30%
    20:00 +37°C° 0 mm 2 mps 702 mmHg 34%
    21:00 +36°C° 0 mm 1 mps 702 mmHg 37%
    22:00 +35°C° 0 mm 1 mps 702 mmHg 41%
    23:00 +34°C° 0 mm 1 mps 702 mmHg 44%

    24 July, Monday

    Time Temperature Precipitation Wind Pressure Humidity
    00:00 +33°C° 0 mm 1 mps 702 mmHg 46%
    01:00 +33°C° 0 mm 1 mps 702 mmHg 49%
    02:00 +30°C° 0 mm 0 mps 702 mmHg 52%
    03:00 +31°C° 0 mm 1 mps 702 mmHg 53%
    04:00 +31°C° 0 mm 1 mps 701 mmHg 55%
    05:00 +30°C° 0 mm 1 mps 701 mmHg 56%
    06:00 +32°C° 0 mm 1 mps 701 mmHg 49%
    07:00 +33°C° 0 mm 1 mps 702 mmHg 41%
    08:00 +34°C° 0 mm 1 mps 702 mmHg 34%
    09:00 +35°C° 0 mm 1 mps 702 mmHg 29%
    10:00 +37°C° 0 mm 1 mps 701 mmHg 23%
    11:00 +39°C° 0 mm 1 mps 701 mmHg 18%
    12:00 +40°C° 0 mm 2 mps 701 mmHg 17%
    13:00 +41°C° 0 mm 2 mps 701 mmHg 16%
    14:00 +42°C° 0 mm 2 mps 700 mmHg 15%
    15:00 +42°C° 0 mm 2 mps 700 mmHg 15%
    16:00 +43°C° 0 mm 3 mps 700 mmHg 16%
    17:00 +44°C° 0 mm 3 mps 700 mmHg 16%
    18:00 +41°C° 0 mm 2 mps 700 mmHg 20%
    19:00 +39°C° 0 mm 2 mps 700 mmHg 24%
    20:00 +37°C° 0 mm 1 mps 700 mmHg 28%
    21:00 +36°C° 0 mm 1 mps 701 mmHg 32%
    22:00 +35°C° 0 mm 1 mps 701 mmHg 35%
    23:00 +35°C° 0 mm 1 mps 701 mmHg 38%

    25 July, Tuesday

    Time Temperature Precipitation Wind Pressure Humidity
    00:00 +34°C° 0.1 mm 1 mps 701 mmHg 41%
    01:00 +33°C° 0.1 mm 1 mps 701 mmHg 43%
    02:00 +33°C° 0.1 mm 1 mps 700 mmHg 46%
    03:00 +32°C° 0 mm 1 mps 700 mmHg 47%
    04:00 +32°C° 0 mm 1 mps 700 mmHg 48%
    05:00 +31°C° 0 mm 1 mps 700 mmHg 50%
    06:00 +32°C° 0 mm 1 mps 701 mmHg 45%
    07:00 +33°C° 0 mm 1 mps 701 mmHg 39%
    08:00 +35°C° 0 mm 1 mps 701 mmHg 34%
    09:00 +36°C° 0 mm 1 mps 701 mmHg 29%
    10:00 +37°C° 0 mm 1 mps 701 mmHg 24%
    11:00 +39°C° 0 mm 2 mps 701 mmHg 19%
    12:00 +40°C° 0 mm 2 mps 701 mmHg 18%
    13:00 +41°C° 0 mm 2 mps 700 mmHg 17%
    14:00 +42°C° 0 mm 2 mps 700 mmHg 16%
    15:00 +43°C° 0 mm 3 mps 700 mmHg 17%
    16:00 +43°C° 0 mm 3 mps 700 mmHg 18%
    17:00 +44°C° 0 mm 3 mps 700 mmHg 19%
    18:00 +42°C° 0.2 mm 3 mps 700 mmHg 24%
    19:00 +40°C° 0.2 mm 2 mps 701 mmHg 28%
    20:00 +38°C° 0.2 mm 2 mps 701 mmHg 33%
    21:00 +37°C° 0.2 mm 2 mps 702 mmHg 37%
    22:00 +37°C° 0.2 mm 2 mps 702 mmHg 40%
    23:00 +36°C° 0.2 mm 2 mps 702 mmHg 43%

    26 July, Wednesday

    Time Temperature Precipitation Wind Pressure Humidity
    00:00 +35°C° 0.6 mm 2 mps 702 mmHg 48%
    01:00 +34°C° 0.6 mm 1 mps 702 mmHg 52%
    02:00 +33°C° 0.6 mm 1 mps 702 mmHg 57%
    03:00 +32°C° 0.4 mm 1 mps 702 mmHg 61%
    04:00 +32°C° 0.4 mm 1 mps 702 mmHg 65%
    05:00 +31°C° 0.4 mm 1 mps 702 mmHg 70%
    06:00 +32°C° 0.1 mm 1 mps 702 mmHg 66%
    07:00 +32°C° 0.1 mm 1 mps 702 mmHg 63%
    08:00 +33°C° 0.1 mm 1 mps 702 mmHg 60%
    09:00 +35°C° 0 mm 1 mps 703 mmHg 52%
    10:00 +37°C° 0 mm 2 mps 703 mmHg 44%
    11:00 +38°C° 0 mm 2 mps 703 mmHg 36%
    12:00 +39°C° 0.1 mm 3 mps 702 mmHg 34%
    13:00 +40°C° 0.1 mm 3 mps 702 mmHg 32%
    14:00 +42°C° 0.1 mm 3 mps 702 mmHg 29%
    15:00 +42°C° 0.2 mm 3 mps 702 mmHg 29%
    16:00 +42°C° 0.2 mm 3 mps 702 mmHg 29%
    17:00 +43°C° 0.2 mm 4 mps 701 mmHg 28%
    18:00 +40°C° 0.1 mm 3 mps 702 mmHg 33%
    19:00 +39°C° 0.1 mm 3 mps 702 mmHg 39%
    20:00 +37°C° 0.1 mm 2 mps 702 mmHg 44%
    21:00 +37°C° 0 mm 2 mps 702 mmHg 48%
    22:00 +36°C° 0 mm 2 mps 703 mmHg 52%
    23:00 +35°C° 0 mm 1 mps 703 mmHg 56%
    Show more